Location: Carlingford
(46.7848°N, 67.7474°W)
Time: 15:47:41
(UTC+00:00)

Envisat - Visible Passes

Search period start: 04 December 2022 00:00
Search period end: 14 December 2022 00:00
Orbit: 763 x 765 km, 98.2° (Epoch: 03 December)

Date Brightness Start Highest point End Pass type
(mag) Time Alt. Az. Time Alt. Az. Time Alt. Az.
04 Dec 5.0 08:44:53 10° NNE 08:46:19 19° NNE 08:46:19 19° NNE visible
04 Dec 4.7 10:25:07 10° NNW 10:26:29 14° NNW 10:26:29 14° NNW visible
05 Dec 5.6 08:08:12 10° NNE 08:08:43 13° NNE 08:08:43 13° NNE visible
05 Dec 4.6 09:47:17 10° N 09:48:54 19° NNW 09:48:54 19° NNW visible
06 Dec 4.9 09:09:57 10° N 09:11:19 19° N 09:11:19 19° N visible
07 Dec 5.4 08:32:58 10° NNE 08:33:45 14° NNE 08:33:45 14° NNE visible
07 Dec 4.8 10:12:49 10° NNW 10:13:55 14° NNW 10:13:55 14° NNW visible
07 Dec 6.2 21:33:49 10° W 21:35:04 11° W 21:36:18 10° WNW visible
08 Dec 4.9 09:35:11 10° N 09:36:21 17° N 09:36:21 17° N visible
09 Dec 5.2 08:57:57 10° NNE 08:58:48 15° NNE 08:58:48 15° NNE visible
09 Dec 5.0 10:38:47 10° NNW 10:38:58 10° NNW 10:38:58 10° NNW visible
10 Dec 5.7 08:21:07 10° NNE 08:21:14 11° NNE 08:21:14 11° NNE visible
10 Dec 5.0 10:00:36 10° N 10:01:25 14° NNW 10:01:25 14° NNW visible
10 Dec 5.9 21:20:18 10° WSW 21:22:56 14° W 21:25:34 10° NW visible
11 Dec 5.1 09:23:06 10° N 09:23:52 14° N 09:23:52 14° N visible
12 Dec 5.5 08:46:00 10° NNE 08:46:20 12° NNE 08:46:20 12° NNE visible
12 Dec 5.1 10:26:19 10° NNW 10:26:31 11° NNW 10:26:31 11° NNW visible
13 Dec 5.1 09:48:26 10° N 09:48:59 13° N 09:48:59 13° N visible
